Location: Rio de Janeiro
(22.9068°S, 43.1729°W)
Time: 15:50:40
(UTC-03:00)

JUGNU - Visible Passes

Search period start: 22 April 2024 00:00
Search period end: 02 May 2024 00:00
Orbit: 835 x 862 km, 20.0° (Epoch: 22 April)

Date Brightness Start Highest point End Pass type
(mag) Time Alt. Az. Time Alt. Az. Time Alt. Az.
22 Apr ? 04:05:35 44° N 04:05:58 45° NNE 04:11:39 10° E visible
23 Apr ? 03:51:02 45° NE 03:51:02 45° NE 03:55:58 10° E visible
23 Apr ? 05:33:08 10° W 05:39:05 66° N 05:45:02 10° E visible
24 Apr ? 03:36:27 36° ENE 03:36:27 36° ENE 03:40:17 10° E visible
24 Apr ? 05:18:16 15° W 05:23:21 67° N 05:29:19 10° E visible
25 Apr ? 03:21:50 27° ENE 03:21:50 27° ENE 03:24:34 10° E visible
25 Apr ? 05:03:39 22° WNW 05:07:38 67° N 05:13:36 10° E visible
26 Apr ? 03:07:13 19° E 03:07:13 19° E 03:08:52 10° E visible
26 Apr ? 04:49:01 31° WNW 04:51:54 67° N 04:57:52 10° E visible
27 Apr ? 02:52:34 13° E 02:52:34 13° E 02:53:09 10° E visible
27 Apr ? 04:34:22 45° WNW 04:36:10 67° N 04:42:08 10° E visible
28 Apr ? 04:19:43 60° NW 04:20:26 66° N 04:26:24 10° ENE visible
29 Apr ? 04:05:03 63° NNE 04:05:03 63° NNE 04:10:39 10° ENE visible
30 Apr ? 03:50:23 48° NE 03:50:23 48° NE 03:54:53 10° ENE visible
30 Apr ? 05:32:12 10° W 05:37:46 40° NNW 05:43:20 10° NE visible
01 May ? 03:35:44 34° ENE 03:35:44 34° ENE 03:39:07 10° ENE visible
01 May ? 05:17:32 15° WNW 05:22:00 37° NNW 05:27:29 10° NE visible
